Temp
15 15 14 15 16 17 17 14 13 13 13 12 12 12 12 12 12 12 11 11 10 9
15 14 14 15 16 14 15 14 13 12 12 12 12 12 12 12 11 10 10 9 9 8
15 14 14 15 14 13 13 12 12 12 12 12 11 11 11 10 10 10 9 9 8 8
14 14 14 14 13 13 12 12 12 11 11 11 11 10 10 9 9 9 9 8 7 7
14 14 14 13 13 12 12 12 12 12 12 11 10 10 9 9 9 9 8 7 6 6
14 13 12 12 12 11 11 11 11 11 11 10 10 9 9 8 8 7 7 6 6 5
13 12 12 12 11 11 11 11 10 10 10 9 9 9 8 8 7 6 6 6 5 4
12 11 11 11 11 11 10 10 9 10 9 9 9 8 8 7 6 6 5 5 4 4
11 11 10 11 11 10 9 9 9 9 8 8 8 8 7 6 6 5 4 4 4 3
11 10 11 10 10 9 9 9 9 8 8 7 7 7 6 5 5 4 4 3 3 2
10 10 9 9 9 9 9 9 8 7 7 6 6 6 5 4 4 4 3 2 2 1
10 10 10 9 10 10 9 8 7 6 6 5 5 4 4 4 3 2 1 1 0 0
10 11 10 10 9 9 8 7 5 5 4 4 4 3 3 3 2 0 -0 -0 0 -1
10 10 10 9 9 8 7 5 5 4 3 3 3 3 3 1 -1 -1 -1 -1 -1 -1
Height
1450 1456 1462 1467 1472 1478 1483 1488 1493 1496 1498 1501 1504 1508 1510 1512 1513 1514 1515 1515 1516 1517
1441 1449 1457 1460 1468 1474 1477 1482 1487 1491 1494 1498 1501 1504 1506 1508 1510 1512 1512 1512 1512 1512
1435 1442 1449 1456 1462 1466 1473 1479 1483 1488 1492 1495 1498 1500 1503 1504 1506 1506 1507 1507 1507 1508
1430 1437 1444 1451 1458 1463 1469 1475 1480 1484 1488 1492 1495 1497 1499 1501 1503 1502 1503 1504 1504 1504
1426 1432 1439 1446 1452 1459 1465 1471 1475 1479 1484 1490 1492 1494 1494 1496 1497 1498 1499 1500 1500 1502
1422 1429 1435 1442 1449 1457 1463 1467 1471 1476 1478 1484 1487 1490 1492 1493 1494 1495 1496 1498 1499 1499
1419 1424 1431 1438 1446 1454 1460 1464 1468 1472 1475 1479 1482 1484 1487 1489 1491 1492 1493 1493 1494 1496
1413 1421 1428 1435 1443 1450 1456 1460 1466 1469 1473 1475 1477 1480 1482 1484 1486 1488 1489 1490 1491 1493
1409 1417 1425 1432 1438 1445 1451 1457 1461 1465 1469 1472 1474 1475 1477 1480 1482 1483 1485 1487 1490 1491
1404 1411 1419 1426 1433 1440 1447 1452 1457 1462 1465 1467 1470 1472 1474 1477 1480 1482 1484 1487 1487 1486
1400 1408 1415 1423 1429 1436 1443 1448 1454 1458 1460 1464 1466 1468 1471 1474 1477 1480 1482 1483 1484 1483
1394 1402 1411 1418 1425 1433 1439 1446 1450 1454 1457 1461 1464 1466 1469 1472 1477 1478 1480 1482 1482 1484
1389 1398 1406 1415 1421 1429 1436 1442 1446 1451 1455 1459 1462 1464 1467 1469 1473 1473 1476 1475 1477 1477
1385 1394 1403 1411 1419 1425 1431 1436 1441 1447 1450 1456 1460 1463 1464 1465 1468 1469 1471 1473 1475 1474
Wind_Speed
35 40 29 31 34 30 29 24 23 22 21 19 17 15 13 11 11 11 11 10 10 11
40 35 32 36 31 27 25 26 24 23 22 19 16 15 13 11 10 9 9 10 10 11
41 37 33 31 31 29 27 26 26 24 21 19 16 13 11 9 8 9 10 11 11 12
35 35 34 34 32 29 26 28 26 24 20 17 15 12 9 8 9 10 11 11 11 11
36 38 37 36 31 27 30 29 26 23 19 16 14 11 10 10 11 11 11 10 10 11
39 38 38 34 32 34 33 30 26 23 20 17 14 12 11 11 11 9 8 9 9 10
41 41 38 36 36 34 30 29 26 22 19 17 13 12 12 10 9 9 9 9 9 8
43 40 39 38 36 34 31 27 24 20 18 16 14 13 11 11 11 10 9 7 6 7
45 43 41 39 36 34 30 26 23 21 18 15 14 13 12 12 11 10 7 6 7 8
47 44 42 40 36 32 30 26 24 22 18 16 14 13 13 11 10 8 9 10 9 8
46 44 41 38 36 33 29 26 25 22 19 17 15 14 13 12 11 12 12 11 9 7
47 45 43 40 35 30 30 28 25 22 19 18 16 15 14 13 14 13 11 10 8 7
50 46 44 40 34 35 30 28 26 23 20 18 18 17 16 16 13 11 10 9 9 9
50 46 43 36 36 34 32 30 27 24 23 22 19 17 15 15 11 9 7 7 8 7
Wind_Direction
205 207 201 207 207 216 217 206 206 216 216 205 204 209 216 228 243 256 263 270 277 278
205 205 193 206 208 197 205 205 206 198 195 197 204 213 225 236 248 259 271 280 281 276
201 202 205 206 202 198 201 198 189 189 193 200 205 212 222 235 251 265 274 278 279 278
202 200 196 199 194 195 193 185 188 191 195 200 207 213 228 246 259 267 274 275 275 279
193 191 192 191 194 196 187 188 190 194 198 205 210 221 232 246 260 269 266 268 274 281
189 187 186 189 187 183 187 187 189 192 194 200 212 227 245 254 256 256 263 269 277 281
186 185 187 183 183 186 186 188 186 190 197 204 216 231 243 248 245 246 251 258 262 269
184 183 181 182 182 183 184 186 189 195 201 211 222 229 231 233 235 236 243 244 263 278
182 181 180 181 182 183 184 185 192 200 208 217 221 222 220 220 217 217 225 243 252 252
183 181 182 182 181 182 185 191 197 203 209 211 209 208 204 198 202 208 221 226 227 233
181 180 179 179 181 184 188 195 199 201 201 204 199 193 185 187 198 208 213 216 219 221
182 182 181 184 185 188 195 196 195 196 199 196 185 177 180 191 205 204 208 211 209 221
187 187 186 187 188 193 193 193 190 193 189 181 180 179 187 195 189 187 199 201 212 215
189 189 189 186 192 191 190 190 191 188 179 181 182 180 182 172 163 170 185 201 212 212